Location: Bettgenhausen
(50.6463°N, 7.5681°E)
Time: 20:49:54
(UTC+00:00)

USA 234 - Pass Details

Date: 27 February 2020
Orbit: 1101 x 1107 km, 123.0° (Epoch: 29 March)

Event Time Altitude Azimuth Distance (km) Brightness Sun altitude
Exits shadow 20:42:40 70° 339° (NNW) 1,166 3.3 -33.8°
Drops below altitude 10° 20:48:36 10° 301° (WNW) 2,966 6.3 -34.5°
Sets 20:51:05 0° 300° (WNW) 3,927 7.2 -34.9°
